User: anonymous   Login
Location: Chevoux
(46.3801°N, 4.9476°E)
Time: 05:11:57
(UTC+00:00)
Language:

CZ-3B R/B - Orbit

View from above orbital plane
View from above orbital plane
View from above satellite
View from above satellite

Ground track
Ground track

The orbit data is extracted from the following two-line orbital elements,

1 43649U 18078C   21101.62176099  .00001942  00000-0  39956-3 0  9996
2 43649  54.8402 228.9871 5616217 109.6697 317.0929  4.62416093 41443
Epoch (UTC): 11 April 2021 14:55:20
Eccentricity: 0.5616217
inclination: 54.8402°
perigee height: 293 km
apogee height: 17387 km
right ascension of ascending node: 228.9871°
argument of perigee: 109.6697°
revolutions per day: 4.62416093
mean anomaly at epoch: 317.0929°
orbit number at epoch: 4144

The dashed part of the orbit path shows where the satellite is in the earth's shadow,  

DLR